Tracking 29892 objects as of 21-Nov-2024
HD Live streaming from Space Station
objects crossing your sky now

ARIANE 44P R/B

Track ARIANE 44P R/B now!


NORAD ID: 21223
Int'l Code: 1991-026B
Perigee: 472.0 km
Apogee: 35,022.9 km
Inclination: 3.9 °
Period: 621.3 minutes
Semi major axis: 24118 km
RCS: 20.8556 m2 (large)
Launch date: April 4, 1991
Source: France (FR)
Launch site: FRENCH GUIANA (FRGUI)

Note: This is a ROCKET BODY
Your satellite tracking list
Your tracking list is empty




NASA's NSSDC Master Catalog

Two Line Element Set (TLE):
1 21223U 91026B   24325.80759443  .00000116  00000-0  11480-2 0  9998
2 21223   3.9414  87.4864 7162754 270.7962  15.3731  2.31781903259465
Source of the keplerian elements: AFSPC